DateTimeUTC,F1_A11,F1_S11,BsB_S11,BsG_S11,BsR_S11,BbsB_S11,BbsG_S11,BbsR_S11,BaB_A11,BaG_A11,BaR_A11,Tu_S11,T_S11,Uu_S11,U_S11,P_S11,T1_A11
2021-02-08T11:00:00Z,00000200,21000000,,,,,,,0000.22,0000.05,0000.55,15.4,22.9,,00.0,0656.7,30.9
2021-02-08T11:01:00Z,00000200,21000000,,,,,,,0000.02,0000.20,-000.29,15.4,22.9,,00.0,0656.7,30.9
2021-02-08T11:02:00Z,00000200,21000000,,,,,,,0000.33,0000.02,0000.36,15.4,22.9,,00.0,0656.7,30.9
2021-02-08T11:03:00Z,00000200,61000000,,,,,,,0000.33,0000.48,0000.23,15.4,22.9,,00.0,0656.7,30.9
2021-02-08T11:04:00Z,00000200,41000000,0001.42,0000.79,0000.30,0000.27,0000.40,0000.04,0000.40,0000.84,0000.44,15.8,22.8,,00.0,0657.5,30.9
2021-02-08T11:05:00Z,00000200,01000000,0000.59,0000.69,0000.38,0000.10,-000.08,-000.01,0000.32,-000.08,0000.11,15.9,22.8,,00.0,0657.6,30.9
2021-02-08T11:06:00Z,00000200,01000000,0001.72,0000.63,0000.60,-000.02,-000.03,0000.12,0000.15,0000.07,0000.32,16.0,22.8,,00.0,0657.7,30.9
2021-02-08T11:07:00Z,00000200,01000000,0000.66,0000.74,0000.33,0000.22,0000.12,0000.12,0000.42,0000.49,0000.32,16.0,22.8,,00.0,0657.7,30.9
2021-02-08T11:08:00Z,00000200,01000000,0001.33,0000.49,0000.32,-000.11,-000.05,-000.07,0000.04,-000.08,-000.31,16.1,22.8,,00.0,0657.7,30.9
2021-02-08T11:09:00Z,00000200,01000000,0001.48,0000.71,0000.37,0000.32,0000.08,-000.07,-000.14,-000.22,0000.00,16.0,22.8,,00.0,0657.7,30.9
2021-02-08T11:10:00Z,00000200,01000000,0000.84,0000.39,0000.36,0000.60,-000.09,-000.02,0000.01,-000.10,-000.44,16.0,22.8,,00.0,0657.7,30.9
2021-02-08T11:11:00Z,00000200,01000000,0001.21,0000.93,0000.56,0000.13,-000.01,0000.06,0000.32,0000.51,0000.32,15.9,22.7,,00.0,0657.7,30.9
2021-02-08T11:12:00Z,00000200,01000000,0001.04,0000.84,0000.38,0000.24,0000.24,0000.05,0000.16,-000.06,0000.05,15.9,22.7,,00.0,0657.7,30.9
2021-02-08T11:13:00Z,00000200,01000000,0001.52,0000.88,0000.51,0000.33,0000.28,-000.09,-000.01,-000.05,0000.21,15.8,22.7,,00.0,0657.6,30.9
2021-02-08T11:14:00Z,00000200,01000000,0001.81,0000.49,0000.38,0000.14,0000.03,0000.07,0000.60,0000.43,0000.18,15.7,22.7,,00.0,0657.6,30.9
2021-02-08T11:15:00Z,00000200,01000000,0001.41,0000.36,0000.20,-000.05,0000.38,-000.32,0000.51,0000.25,0000.47,15.7,22.6,,00.0,0657.6,30.9
2021-02-08T11:16:00Z,00000200,01000000,0000.70,0000.45,0000.47,0000.24,0000.06,0000.16,0000.31,0000.40,0000.34,15.8,22.6,,00.0,0657.6,30.9
2021-02-08T11:17:00Z,00000200,01000000,0000.76,0000.64,0000.27,0000.72,0000.18,-000.04,0000.47,0000.52,0000.27,15.8,22.6,,00.0,0657.6,30.9
2021-02-08T11:18:00Z,00000200,01000000,0000.96,0000.60,0000.56,-000.17,0000.02,-000.06,0000.09,0000.20,-000.07,15.9,22.7,,00.0,0657.6,30.9
2021-02-08T11:19:00Z,00000200,01000000,0001.23,0000.51,0000.60,0000.71,-000.02,0000.30,0000.12,0000.30,0000.33,15.9,22.7,,00.0,0657.6,30.9
2021-02-08T11:20:00Z,00000200,01000000,0000.80,0000.70,0000.43,0000.13,0000.19,0000.10,0000.38,-000.04,0000.24,15.9,22.7,,00.0,0657.6,30.9
2021-02-08T11:21:00Z,00000200,01000000,0000.59,0000.67,0000.13,-000.39,-000.14,0000.04,0000.16,0000.39,-000.11,16.0,22.7,,00.0,0657.6,30.9
2021-02-08T11:22:00Z,00000200,01000000,0000.75,0000.35,0000.43,-000.13,-000.06,-000.01,0000.37,0000.01,0000.34,16.0,22.8,,00.0,0657.5,30.9
2021-02-08T11:23:00Z,00000200,01000000,0000.69,0000.54,0000.36,0000.27,0000.23,-000.04,0000.01,0000.40,0000.03,16.1,22.8,,00.0,0657.5,30.9
2021-02-08T11:24:00Z,00000200,01000000,0000.83,0000.48,0000.29,0000.18,0000.58,0000.02,0000.01,-000.20,-000.19,16.0,22.8,,00.0,0657.5,30.9
2021-02-08T11:25:00Z,00000200,01000000,0000.63,0000.56,0000.31,0000.21,0000.11,0000.40,0000.19,0000.34,0000.32,15.9,22.7,,00.0,0657.5,30.9
2021-02-08T11:26:00Z,00000200,01000000,0000.32,0000.54,0000.18,-000.20,0000.42,-000.23,0000.37,0000.25,0000.03,15.9,22.7,,00.0,0657.4,30.9
2021-02-08T11:27:00Z,00000200,01000000,0000.72,0000.52,0000.18,-000.27,-000.16,0000.25,0000.13,0000.30,0000.03,15.8,22.6,,00.0,0657.4,30.9
2021-02-08T11:28:00Z,00000200,01000000,0000.76,0000.89,0000.34,-000.05,0000.17,-000.03,0000.64,-000.19,0000.42,15.8,22.6,,00.0,0657.4,30.9
2021-02-08T11:29:00Z,00000200,01000000,0000.98,0000.60,0000.28,0000.30,0000.08,0000.15,0000.21,0000.53,0000.20,15.7,22.6,,00.0,0657.4,30.9
2021-02-08T11:30:00Z,00000200,01000000,0000.20,0000.62,0000.16,0000.13,-000.08,0000.05,0000.21,0000.09,0000.26,15.7,22.6,,00.0,0657.3,30.9
2021-02-08T11:31:00Z,00000200,01000000,0000.76,0000.82,0000.52,-000.37,0000.09,0000.04,0000.20,0000.47,0000.24,15.7,22.6,,00.0,0657.3,30.9
2021-02-08T11:32:00Z,00000200,01000000,0000.53,0000.17,0000.32,0000.64,0000.30,-000.09,0000.57,0000.21,0000.25,15.8,22.6,,00.0,0657.3,30.9
2021-02-08T11:33:00Z,00000200,01000000,0000.77,0000.33,0000.20,-000.12,0000.11,-000.02,0000.22,0000.49,0000.25,15.9,22.6,,00.0,0657.2,30.9
2021-02-08T11:34:00Z,00000200,01000000,-000.18,0000.33,0000.47,0000.20,0000.38,0000.14,0000.34,0000.05,0000.18,15.9,22.7,,00.0,0657.1,30.9
2021-02-08T11:35:00Z,00000200,01000000,0000.13,0000.05,0000.08,-000.11,-000.24,-000.14,-000.15,0000.21,0000.02,16.0,22.7,,00.0,0657.1,30.9
2021-02-08T11:36:00Z,00000200,01000000,0000.39,0000.45,-000.03,-000.16,0000.09,0000.09,0000.47,0000.29,0000.41,16.0,22.7,,00.0,0657.1,31.0
2021-02-08T11:37:00Z,00000200,01000000,0000.19,-000.11,0000.01,0000.29,0000.45,0000.06,0000.15,0000.12,-000.04,16.1,22.7,,00.0,0657.1,30.9
2021-02-08T11:38:00Z,00000200,01000000,0000.04,-000.20,0000.18,-000.05,0000.18,-000.11,0000.14,0000.17,-000.05,16.1,22.8,,00.0,0657.1,30.9
2021-02-08T11:39:00Z,00000200,01000000,0000.68,-000.10,0000.03,0000.05,0000.10,0000.06,-000.12,-000.06,0000.27,16.2,22.8,,00.0,0657.0,30.9
2021-02-08T11:40:00Z,00000200,01000000,0000.24,0000.27,-000.09,-000.20,0000.16,-000.07,0000.09,-000.08,-000.14,16.2,22.8,,00.0,0656.9,30.9
2021-02-08T11:41:00Z,00000200,01000000,0000.64,0000.26,0000.37,-000.24,-000.01,-000.20,-000.33,0000.12,-000.14,16.2,22.8,,00.0,0656.9,30.9
2021-02-08T11:42:00Z,00000200,01000000,-000.04,0000.05,-000.13,-000.17,-000.22,-000.12,0000.34,-000.03,0000.24,16.1,22.8,,00.0,0656.9,30.9
2021-02-08T11:43:00Z,00000200,01000000,0000.03,0000.24,0000.12,-000.19,-000.11,0000.15,-000.20,-000.04,-000.43,16.0,22.7,,00.0,0657.0,30.9
2021-02-08T11:44:00Z,00000200,01000000,-000.41,0000.13,0000.20,-000.09,-000.07,-000.06,0000.16,0000.14,0000.29,16.0,22.7,,00.0,0657.0,30.9
2021-02-08T11:45:00Z,00000200,01000000,0000.93,0000.39,0000.10,0000.21,-000.01,-000.16,0000.26,-000.15,0000.10,16.0,22.7,,00.0,0657.0,30.9
2021-02-08T11:46:00Z,00000200,01000000,0001.11,0000.42,-000.01,0000.28,-000.04,0000.04,-000.05,0000.20,0000.13,16.0,22.7,,00.0,0657.1,30.9
2021-02-08T11:47:00Z,00000200,01000000,-000.15,-000.10,0000.06,0000.26,-000.22,-000.07,0000.33,0000.19,0000.08,16.0,22.7,,00.0,0657.1,30.9
2021-02-08T11:48:00Z,00000200,01000000,0000.26,0000.28,0000.33,0000.27,0000.09,-000.13,-000.08,0000.10,0000.22,16.1,22.7,,00.0,0657.1,30.9
2021-02-08T11:49:00Z,00000200,01000000,0000.12,0000.19,0000.29,0000.48,0000.22,-000.33,0000.22,0000.10,0000.13,16.1,22.7,,00.0,0657.0,30.9
2021-02-08T11:50:00Z,00000200,01000000,0000.72,-000.37,0000.01,-000.73,0000.14,-000.15,0000.41,0000.44,0000.39,16.2,22.8,,00.0,0657.0,30.9
2021-02-08T11:51:00Z,00000200,01000000,0000.24,0000.07,-000.03,0000.28,-000.21,-000.22,0000.26,0000.14,-000.11,16.2,22.8,,00.0,0657.0,30.9
2021-02-08T11:52:00Z,00000200,01000000,-000.10,-000.09,0000.02,-000.17,0000.03,0000.17,-000.27,0000.07,-000.26,16.3,22.9,,00.0,0657.0,30.9
2021-02-08T11:53:00Z,00000200,01000000,-000.06,0000.16,-000.06,-000.04,0000.12,-000.08,0000.05,0000.03,0000.27,16.3,22.9,,00.0,0656.9,31.0
2021-02-08T11:54:00Z,00000200,01000000,-000.26,0000.14,0000.11,-000.19,0000.08,-000.07,-000.13,0000.06,-000.12,16.3,22.8,,00.0,0656.9,30.9
2021-02-08T11:55:00Z,00000200,01000000,-000.33,0000.06,-000.09,-000.05,0000.17,0000.06,0000.28,-000.49,-000.34,16.3,22.8,,00.0,0656.8,30.9
2021-02-08T11:56:00Z,00000200,01000000,0001.14,0000.23,-000.01,-000.21,-000.02,0000.04,-000.14,0000.01,0000.06,16.2,22.8,,00.0,0656.8,30.9
2021-02-08T11:57:00Z,00000200,41000000,,,,,,,-000.66,-000.42,-000.46,16.2,22.9,,00.0,0656.6,30.9
2021-02-08T11:58:00Z,00000200,61000000,,,,,,,0000.26,0000.40,0000.46,15.7,22.9,,00.0,0655.8,30.9
2021-02-08T11:59:00Z,00000200,21000000,,,,,,,0000.42,-000.05,0000.17,15.7,23.0,,00.0,0655.8,30.9
